Flag for United Kingdom Weather past 2 weeks in Loughton, England, United Kingdom

Now
42 °F

Quite cool.


Feels Like: 38 °F
Forecast: 45 / 56 °F
Wind: 6 mph from North

Location: Gravesend-Broadness


UV Index: 0 (Low)

Visibility: N/A


Pressure: 30.12 "Hg

Humidity: 75%

Dew point: 34 °F

Location of LoughtonLocation

Historic Weather in Loughton

°F

Loughton temperature yesterday

Maximum temperature yesterday: 55 °F (at 5:00 PM)
Minimum temperature yesterday: 43 °F (at 7:00 AM)
Average temperature yesterday: 49 °F

Past Weeks' High & Low Weather Summary

 TemperatureHumidityPressure
High64 °F (Apr 17, 1:00 PM)100% (Apr 5, 3:00 AM)30.44 "Hg (Apr 5, 3:00 AM)
Low33 °F (Apr 16, 3:00 AM)41% (Apr 14, 4:00 PM)29.62 "Hg (Apr 4, 2:00 AM)
Average52 °F75%30.09 "Hg
* Reported Apr 4 2:00 AM — Apr 19 2:00 AM, Loughton, Weather by CustomWeather, © 2014

Note: Actual official high and low records may vary slightly from our data, if they occured in-between our weather recording intervals... More about our weather records

Advertising

Historic Weather Conditions — Data for Previous 24 hours

 ConditionsComfort  
Time TempWeatherWind HumidityBarometerVisibility
2:00 AM
Apr 19
42 °FQuite cool.6 mph75%30.12 "HgN/A
1:00 AM43 °FQuite cool.8 mph70%30.13 "HgN/A
12:00 AM46 °FCool.8 mph70%30.14 "HgN/A
11:00 PM
Apr 18
47 °FCool.9 mph70%30.15 "HgN/A
9:00 PM47 °FCool.9 mph67%30.15 "HgN/A
8:00 PM49 °FCool.12 mph63%30.14 "HgN/A
7:00 PM51 °FCool.10 mph60%30.13 "HgN/A
6:00 PM52 °FCool.8 mph65%30.12 "HgN/A
5:00 PM55 °FCool.14 mph52%30.13 "HgN/A
4:00 PM53 °FCool.12 mph51%30.13 "HgN/A
3:00 PM53 °FCool.9 mph50%30.14 "HgN/A
2:00 PM52 °FCool.10 mph55%30.15 "HgN/A
1:00 PM50 °FCool.12 mph56%30.15 "HgN/A
12:00 PM50 °FCool.12 mph56%30.15 "HgN/A
11:00 AM52 °FCool.14 mph58%30.15 "HgN/A
10:00 AM50 °FCool.8 mph65%30.14 "HgN/A
9:00 AM48 °FCool.10 mph73%30.14 "HgN/A
8:00 AM45 °FQuite cool.10 mph85%30.12 "HgN/A
7:00 AM43 °FQuite cool.9 mph88%30.11 "HgN/A
6:00 AM43 °FQuite cool.10 mph84%30.08 "HgN/A
5:00 AM44 °FQuite cool.13 mph82%30.07 "HgN/A
4:00 AM46 °FCool.13 mph78%30.07 "HgN/A
3:00 AM47 °FCool.8 mph78%30.07 "HgN/A
Weather by CustomWeather, © 2014

See weather overview